[[{"header":{"parameterUnit":"m.s-1","parameterCategory":1,"la1":30.2991,"la2":30.254,"lo1":-89.0895,"lo2":-89.0444,"dy":0.0017,"dx":0.0017,"nx":28,"ny":28,"refTime":"2024-05-15T03:00:00:Z","depth":0,"parameterNumber":2,"parameterNumberName":"U-component_of_WINDS"},"data":[0,0,0,0,0,0,0,0,0,0,0,0,0,0,0,0,0,0,0,0,0,0,0,0,0,0,0,0,0,0,0,0,0,0,0,0,0,0,0,0,0,0,0,0,0,0,0,0,0,0,0,0,0,0,0,0,0,0,1.3577,1.3579,0,1.373,1.3732,1.3734,1.375,1.3748,1.3747,1.3745,1.3911,1.3917,1.3922,0,0,0,0,0,0,0,0,0,0,0,0,0,1.3306,1.3311,1.3577,1.3579,1.3581,1.373,1.3732,1.3734,1.375,1.3748,1.3746,1.3744,1.3909,1.3916,1.3923,0,0,0,0,0,0,0,0,0,0,0,0,0,1.3438,1.3313,1.3577,1.3606,1.3611,1.373,1.3732,1.3735,1.375,1.3748,1.3746,1.3743,1.3907,1.3915,1.3924,1.4026,0,0,1.3951,1.3955,0,0,0,0,0,0,0,0,1.3431,1.3448,1.36,1.3605,1.3609,1.3718,1.3698,1.3833,1.3751,1.3698,1.3745,1.3742,1.3849,1.3863,1.3897,1.4034,1.4041,1.3952,1.3957,1.3961,1.3963,0,0,0,0,0,0,0,1.3422,1.3442,1.3638,1.3602,1.3608,1.3615,1.3631,1.3723,1.3785,1.3702,1.3704,1.3721,1.3852,1.3888,1.3901,1.4044,1.3952,1.3959,1.3965,1.3968,1.4274,1.4277,0,0,0,0,0,0,1.3406,1.3434,1.3633,1.3642,1.3512,1.3622,1.364,1.3686,1.3784,1.3797,1.3723,1.3721,1.3875,1.3891,1.3907,1.4034,1.3961,1.3969,1.3974,1.4271,1.4275,1.4278,0,0,0,0,0,0,1.34,1.3423,1.3627,1.3539,1.3565,1.3629,1.3681,1.369,1.3727,1.38,1.3812,1.3749,1.3873,1.3895,1.3996,1.404,1.3973,1.3981,1.4268,1.4272,1.4276,1.4288,0,0,0,0,0,0,1.3392,1.3421,1.3459,1.3539,1.357,1.3711,1.3683,1.3695,1.3741,1.374,1.3827,1.384,1.3873,1.3983,1.4005,1.4051,1.3988,1.4264,1.427,1.4275,1.4284,1.4292,1.4299,0,0,0,0,0,1.3382,1.3458,1.346,1.3484,1.3617,1.3713,1.3731,1.3765,1.3745,1.3784,1.3831,1.3837,1.4031,1.3993,1.4018,1.4067,1.4262,1.4268,1.4274,1.428,1.429,1.4299,0,0,0,0,0,0,1.3383,1.3469,1.3473,1.3576,1.3637,1.3716,1.3767,1.3775,1.3845,1.3842,1.3885,1.3904,1.4004,1.4046,1.4002,1.4172,1.4145,1.4156,1.4141,1.4151,1.4158,1.4146,1.3996,0,0,0,0,0,1.3395,1.3463,1.3535,1.3619,1.3649,1.3703,1.3746,1.3767,1.3833,1.386,1.3914,1.3981,1.4057,1.4106,1.418,1.429,1.431,1.4336,1.4344,1.4349,1.4359,1.4421,1.4434,1.4298,1.4298,1.4298,0,0,1.3421,1.3476,1.3517,1.3621,1.367,1.3742,1.3724,1.3801,1.3856,1.3873,1.3971,1.4013,1.4091,1.4196,1.4246,1.4235,1.4401,1.4357,1.4361,1.4368,1.4429,1.4442,1.4453,1.4303,1.4302,1.4301,0,0,1.3505,1.3552,1.3627,1.3677,1.3752,1.3787,1.3805,1.3883,1.3911,1.4009,1.4023,1.4091,1.4221,1.4275,1.432,1.4424,1.4432,1.4448,1.4487,1.4547,1.4557,1.4567,1.4605,1.4618,1.4457,1.4457,1.4457,0,1.3528,1.3634,1.3666,1.3742,1.3788,1.3804,1.3882,1.393,1.4026,1.4059,1.4044,1.4207,1.426,1.4379,1.4404,1.444,1.4464,1.4438,1.4552,1.4563,1.4572,1.4609,1.4623,1.4458,1.4458,1.4458,1.4458,0,1.366,1.3733,1.3786,1.3874,1.3927,1.4004,1.405,1.41,1.4116,1.4154,1.4255,1.4319,1.4407,1.4437,1.4455,1.4559,1.455,1.4543,1.4517,1.4586,1.4621,1.4635,1.446,1.446,1.4459,1.4459,0,0,1.3748,1.3853,1.3872,1.3913,1.3996,1.4055,1.4134,1.4216,1.4259,1.4325,1.4393,1.4503,1.4497,1.4548,1.4572,1.4625,1.4704,1.4612,1.4615,1.4627,1.4824,1.4828,1.4843,1.471,1.4713,1.4715,1.4817,0,1.3841,1.3978,1.4009,1.4128,1.4197,1.4213,1.4282,1.4342,1.438,1.4446,1.4489,1.4565,1.4552,1.4583,1.4635,1.4683,1.4744,1.4676,1.4776,1.4779,1.4756,1.4862,1.4867,1.496,1.4831,1.4834,1.4835,0,1.3968,1.4034,1.4159,1.4233,1.4263,1.4324,1.4403,1.4465,1.4535,1.4558,1.4614,1.4634,1.4719,1.4688,1.4806,1.4759,1.4802,1.4832,1.4837,1.4848,1.4811,1.4876,1.4991,1.5005,1.4857,1.4855,1.4854,0,1.4021,1.4141,1.4231,1.4266,1.4355,1.4397,1.4437,1.4503,1.4551,1.4621,1.4653,1.4733,1.4777,1.4839,1.4881,1.4854,1.4996,1.4968,1.502,1.5019,1.505,1.5047,1.5173,1.5077,1.5077,1.5076,1.5076,0,1.4122,1.4197,1.4255,1.4311,1.4397,1.4434,1.4519,1.456,1.4619,1.4684,1.4705,1.4766,1.4817,1.4886,1.492,1.5013,1.5033,1.5056,1.5064,1.5054,1.5051,1.5083,1.5078,1.508,1.5079,1.5079,1.5078,0,1.4194,1.4236,1.4335,1.4411,1.4432,1.4492,1.4558,1.4614,1.4651,1.4734,1.4756,1.4816,1.4899,1.4946,1.5051,1.5074,1.5178,1.5183,1.5153,1.5157,1.5206,1.52,1.5357,1.5379,1.5268,1.5269,1.527,0,1.4256,1.4314,1.4395,1.4439,1.4478,1.4549,1.4597,1.4637,1.4687,1.477,1.4817,1.49,1.4968,1.51,1.5155,1.5236,1.5243,1.5292,1.5255,1.5244,1.5244,1.524,1.5246,1.5299,1.53,1.53,1.5301,0,1.4361,1.4378,1.4445,1.452,1.4576,1.4638,1.4699,1.4735,1.4785,1.484,1.4923,1.4976,1.5082,1.5165,1.525,1.5294,1.5307,1.5312,1.5328,1.5319,1.5299,1.5311,1.5171,1.5308,1.5308,1.5307,1.5307,1.5306,1.443,1.4483,1.4547,1.4622,1.4672,1.4728,1.4784,1.4828,1.4897,1.4984,1.5004,1.5092,1.5162,1.5277,1.5323,1.5394,1.5385,1.5409,1.5415,1.542,1.5421,1.5287,1.541,1.541,1.5409,1.5409,1.5409,0,1.4536,1.4578,1.4646,1.473,1.4789,1.4792,1.4861,1.4911,1.4987,1.5049,1.5115,1.5212,1.5292,1.5353,1.5436,1.5481,1.5489,1.5502,1.5499,1.5509,1.5424,1.5402,1.5494,1.5494,1.5494,1.5494,1.5494,1.5494,1.4598,1.4687,1.4712,1.4827,1.487,1.4954,1.4992,1.5046,1.5095,1.5201,1.5267,1.5305,1.5367,1.5455,1.553,1.5546,1.5576,1.5588,1.5605,1.5524,1.5515,1.5506,1.5485,1.5594,1.5594,1.5683,1.5684,1.5685]},{"header":{"parameterUnit":"m.s-1","parameterCategory":1,"la1":30.2991,"la2":30.254,"lo1":-89.0895,"lo2":-89.0444,"dy":0.0017,"dx":0.0017,"nx":28,"ny":28,"refTime":"2024-05-15T03:00:00:Z","depth":0,"parameterNumber":3,"parameterNumberName":"V-component_of_WINDS"},"data":[0,0,0,0,0,0,0,0,0,0,0,0,0,0,0,0,0,0,0,0,0,0,0,0,0,0,0,0,0,0,0,0,0,0,0,0,0,0,0,0,0,0,0,0,0,0,0,0,0,0,0,0,0,0,0,0,0,0,1.9764,1.9767,0,2.0053,2.0056,2.0059,2.0085,2.0082,2.0079,2.0076,2.0371,2.0381,2.0392,0,0,0,0,0,0,0,0,0,0,0,0,0,1.9229,1.9239,1.9763,1.9767,1.9771,2.0052,2.0056,2.006,2.0086,2.0082,2.0078,2.0075,2.0367,2.038,2.0393,0,0,0,0,0,0,0,0,0,0,0,0,0,1.9484,1.9242,1.9763,1.9817,1.9825,2.0051,2.0056,2.0061,2.0086,2.0082,2.0077,2.0073,2.0363,2.0379,2.0394,2.0586,0,0,2.0443,2.045,0,0,0,0,0,0,0,0,1.947,1.9504,1.9806,1.9814,1.9823,2.0028,1.9976,2.0237,2.0088,1.9987,2.0076,2.0071,2.026,2.0284,2.0349,2.0599,2.0612,2.0445,2.0455,2.0461,2.0466,0,0,0,0,0,0,0,1.9452,1.9491,1.9878,1.981,1.9821,1.9826,1.9857,2.0025,2.0146,1.9996,1.9998,2.0032,2.0264,2.0333,2.0356,2.0616,2.0444,2.0459,2.0469,2.0475,2.1035,2.104,0,0,0,0,0,0,1.9424,1.9477,1.9868,1.9886,1.9631,1.9839,1.9874,1.9967,2.0144,2.0167,2.0036,2.0032,2.0308,2.0337,2.0366,2.0601,2.0461,2.0476,2.0486,2.103,2.1036,2.1042,0,0,0,0,0,0,1.9413,1.9459,1.9857,1.9682,1.9733,1.9854,1.9957,1.9975,2.0044,2.0175,2.0196,2.0085,2.0306,2.0344,2.053,2.0612,2.0484,2.0498,2.1024,2.1032,2.1039,2.1072,0,0,0,0,0,0,1.9397,1.9455,1.953,1.9684,1.9743,2.0018,1.9962,1.9984,2.0072,2.007,2.0226,2.0247,2.0305,2.0506,2.0546,2.0631,2.0511,2.1017,2.1027,2.1037,2.1064,2.108,2.1094,0,0,0,0,0,1.9378,1.9528,1.9534,1.9581,1.9839,2.0022,2.0056,2.012,2.0079,2.0154,2.0237,2.0242,2.0595,2.0525,2.0571,2.0662,2.1012,2.1025,2.1036,2.1058,2.1077,2.1093,0,0,0,0,0,0,1.9381,1.9549,1.9558,1.9762,1.9877,2.0026,2.0124,2.0138,2.0268,2.0261,2.0333,2.0368,2.0552,2.0625,2.0544,2.0854,2.0799,2.0821,2.0801,2.082,2.0834,2.0814,2.0524,0,0,0,0,0,1.9405,1.9541,1.968,1.9846,1.9904,2.0004,2.0086,2.0125,2.0247,2.0296,2.0393,2.0511,2.0649,2.0738,2.0872,2.1074,2.1107,2.1159,2.1173,2.1184,2.1203,2.1313,2.1337,2.1081,2.1081,2.1081,0,0,1.9457,1.9565,1.9647,1.9849,1.9944,2.0081,2.0045,2.0193,2.0295,2.0319,2.0501,2.0576,2.0712,2.0907,2.0997,2.0974,2.128,2.12,2.1208,2.122,2.1328,2.1352,2.1373,2.1089,2.1088,2.1086,0,0,1.9622,1.9718,1.9866,1.9961,2.0104,2.0169,2.0204,2.0351,2.0401,2.0585,2.0605,2.0727,2.0962,2.1058,2.1138,2.1334,2.1344,2.1376,2.1453,2.156,2.158,2.1598,2.1668,2.1692,2.1393,2.1393,2.1393,0,1.9668,1.9878,1.9941,2.0088,2.0176,2.0202,2.0353,2.0441,2.062,2.0679,2.0649,2.0944,2.1038,2.1255,2.1302,2.1366,2.1407,2.136,2.1572,2.1591,2.1609,2.1676,2.1702,2.1396,2.1396,2.1395,2.1395,0,1.9927,2.0071,2.0174,2.0346,2.0445,2.0593,2.0677,2.0769,2.0798,2.0865,2.105,2.1163,2.1319,2.1373,2.1403,2.1593,2.1574,2.1557,2.1504,2.1635,2.17,2.1726,2.14,2.1399,2.1398,2.1398,0,0,2.0105,2.0308,2.0345,2.0422,2.058,2.0693,2.0839,2.0992,2.107,2.1191,2.1316,2.1512,2.1497,2.1587,2.1627,2.1721,2.1868,2.1693,2.1697,2.1721,2.2084,2.2096,2.2125,2.1874,2.1879,2.1883,2.2072,0,2.0288,2.0554,2.0613,2.084,2.0974,2.0998,2.1126,2.1236,2.1302,2.1423,2.1494,2.1633,2.1603,2.1657,2.175,2.183,2.1942,2.1817,2.199,2.1995,2.1957,2.2159,2.2174,2.2347,2.2098,2.2102,2.2105,0,2.0539,2.0665,2.0906,2.1044,2.1102,2.1217,2.136,2.1476,2.1599,2.164,2.1739,2.1768,2.192,2.1857,2.2067,2.1981,2.2054,2.2103,2.2111,2.2132,2.206,2.2185,2.2404,2.2431,2.2146,2.2142,2.2139,0,2.0645,2.0875,2.1049,2.1114,2.1279,2.1359,2.1431,2.155,2.1637,2.1761,2.1818,2.1958,2.2035,2.2142,2.2207,2.2156,2.2412,2.2354,2.2449,2.2448,2.2504,2.25,2.2739,2.2549,2.2549,2.2548,2.2547,0,2.0844,2.0991,2.1098,2.1205,2.1369,2.1434,2.1594,2.1666,2.1771,2.189,2.1919,2.2031,2.211,2.2232,2.2283,2.2449,2.2483,2.2519,2.2532,2.2518,2.2514,2.2569,2.2559,2.2555,2.2553,2.2552,2.2551,0,2.0992,2.107,2.1261,2.1401,2.1439,2.1554,2.1673,2.1776,2.184,2.1991,2.203,2.2131,2.2276,2.2351,2.2532,2.2566,2.2752,2.2757,2.2711,2.2716,2.2807,2.2798,2.3091,2.3133,2.2913,2.2915,2.2917,0,2.1116,2.1229,2.138,2.1462,2.1536,2.1669,2.1757,2.1824,2.1915,2.2062,2.2148,2.2293,2.2414,2.2643,2.2732,2.2869,2.2878,2.2971,2.2899,2.2881,2.288,2.2874,2.2885,2.2985,2.2987,2.2989,2.299,0,2.1326,2.1358,2.1485,2.1626,2.173,2.1844,2.1956,2.2021,2.2106,2.2206,2.2354,2.2447,2.263,2.2775,2.2918,2.299,2.3005,2.3011,2.3041,2.3029,2.2998,2.3016,2.2747,2.3005,2.3004,2.3002,2.3002,2.3001,2.1466,2.1567,2.1689,2.1829,2.1919,2.2022,2.2126,2.2203,2.2328,2.2483,2.2514,2.267,2.2787,2.2981,2.3058,2.318,2.316,2.3203,2.3214,2.3224,2.3228,2.2976,2.3206,2.3205,2.3205,2.3205,2.3204,0,2.1678,2.1757,2.1885,2.204,2.215,2.2152,2.2275,2.2366,2.2504,2.2612,2.2729,2.2898,2.3037,2.3135,2.3276,2.3354,2.3364,2.3389,2.3385,2.3401,2.3237,2.3198,2.3379,2.3379,2.3379,2.3379,2.3379,2.3379,2.1802,2.1973,2.2019,2.2233,2.2311,2.2465,2.2535,2.2629,2.2716,2.2903,2.3019,2.3082,2.3185,2.3333,2.346,2.3484,2.3535,2.356,2.3586,2.3431,2.3413,2.3395,2.3359,2.357,2.3571,2.374,2.3741,2.3742]}]]